WetterOnline ( http://www.wetteronline.de )

Wetter aktuell Zwickau

Aktuelles Wetter: Gera/Leumnitz (311m)

6-stündlich | Neueste Meldungen
Ortszeit Temperatur Wetter
Fr, 19.10. 8:00 10.2° C bedeckt
Fr, 19.10. 2:00 11.9° C bewölkt
Do, 18.10. 20:00 12.4° C bedeckt
Do, 18.10. 14:00 15.3° C bewölkt
Do, 18.10. 8:00 8.7° C bewölkt
Do, 18.10. 2:00 8.7° C wolkenlos
Mi, 17.10. 20:00 14.9° C fast wolkenlos
Mi, 17.10. 14:00 18.8° C wolkig
Ortszeit Temperatur Wetter
Fr, 19.10. 8:30 10.1° C bedeckt
Fr, 19.10. 8:20 10.1° C bedeckt
Fr, 19.10. 8:10 10.2° C bedeckt
Fr, 19.10. 8:00 10.2° C bedeckt
Fr, 19.10. 7:50 10.2° C bedeckt
Fr, 19.10. 7:40 10.2° C bedeckt
Fr, 19.10. 7:30 10.3° C bedeckt
Fr, 19.10. 7:00 10.5° C bedeckt
Fr, 19.10. 6:30 10.8° C bedeckt
Fr, 19.10. 6:00 10.9° C bedeckt
Fr, 19.10. 5:30 10.9° C bedeckt
Ortszeit Relative Feuchte Sichtweite
Fr, 19.10. 8:00 87% 16 km
Fr, 19.10. 2:00 92% 6 km
Do, 18.10. 20:00 89% 4.1 km
Do, 18.10. 14:00 75% 5.0 km
Do, 18.10. 8:00 92% 3.9 km
Do, 18.10. 2:00 91% 3.7 km
Mi, 17.10. 20:00 75% 7 km
Mi, 17.10. 14:00 50% 14 km
Ortszeit Relative Feuchte Sichtweite
Fr, 19.10. 8:30 87% 16 km
Fr, 19.10. 8:20 87% -
Fr, 19.10. 8:10 87% -
Fr, 19.10. 8:00 87% 16 km
Fr, 19.10. 7:50 87% -
Fr, 19.10. 7:40 88% -
Fr, 19.10. 7:30 88% 14 km
Fr, 19.10. 7:00 90% 10 km
Fr, 19.10. 6:30 90% 9 km
Fr, 19.10. 6:00 92% 7 km
Fr, 19.10. 5:30 93% 8 km
Ortszeit Niederschlagsmenge Niederschlagsart
Fr, 19.10. 8:00 0.1 l/m2 in 12 Std. -
Fr, 19.10. 2:00 0.1 l/m2 in 6 Std. Regen
Do, 18.10. 20:00 0.1 l/m2 in 12 Std. Regen
Do, 18.10. 14:00 0.0 l/m2 in 6 Std. -
Do, 18.10. 8:00 0.0 l/m2 in 12 Std. -
Do, 18.10. 2:00 0.0 l/m2 in 6 Std. -
Mi, 17.10. 20:00 0.0 l/m2 in 12 Std. -
Mi, 17.10. 14:00 0.0 l/m2 in 6 Std. -
Ortszeit Niederschlagsmenge Niederschlagsart
Fr, 19.10. 8:30 0.0 l/m2 in 1 Std. -
Fr, 19.10. 8:20 keine Meldung -
Fr, 19.10. 8:10 keine Meldung -
Fr, 19.10. 8:00 0.0 l/m2 in 1 Std. -
Fr, 19.10. 7:50 keine Meldung -
Fr, 19.10. 7:40 keine Meldung -
Fr, 19.10. 7:30 0.0 l/m2 in 1 Std. -
Fr, 19.10. 7:00 0.0 l/m2 in 1 Std. -
Fr, 19.10. 6:30 0.0 l/m2 in 1 Std. -
Fr, 19.10. 6:00 0.0 l/m2 in 1 Std. -
Fr, 19.10. 5:30 0.0 l/m2 in 1 Std. -
Ortszeit Stärke Spitze Richtung
km/h Bft. km/h Grad Sektor
Fr, 19.10. 8:00 7 2 18 40° NO
Fr, 19.10. 2:00 11 2 22 30° NO
Do, 18.10. 20:00 6 1 22 20° N
Do, 18.10. 14:00 13 3 20 350° N
Do, 18.10. 8:00 9 2 15 190° S
Do, 18.10. 2:00 11 2 14 190° S
Mi, 17.10. 20:00 11 2 14 80° O
Mi, 17.10. 14:00 4 1 14 330° NW
Ortszeit Stärke Spitze Richtung
km/h Bft. km/h Grad Sektor
Fr, 19.10. 8:30 9 2 15 30° NO
Fr, 19.10. 8:20 9 2 - 30° NO
Fr, 19.10. 8:10 7 2 - 40° NO
Fr, 19.10. 8:00 7 2 18 40° NO
Fr, 19.10. 7:50 7 2 - 40° NO
Fr, 19.10. 7:40 7 2 - 50° NO
Fr, 19.10. 7:30 9 2 17 30° NO
Fr, 19.10. 7:00 9 2 19 20° N
Fr, 19.10. 6:30 7 2 18 10° N
Fr, 19.10. 6:00 7 2 19 360° N
Fr, 19.10. 5:30 7 2 15 20° N
Ortszeit Untergrenze Bedeckung Gattung
total tief tief mittel hoch
Fr, 19.10. 8:00 270 m 8/8 8/8 - - -
Fr, 19.10. 2:00 180 m 7/8 7/8 - - -
Do, 18.10. 20:00 300 m 8/8 8/8 - - -
Do, 18.10. 14:00 420 m 7/8 - - - -
Do, 18.10. 8:00 1020 m 7/8 7/8 - - -
Do, 18.10. 2:00 - 0/8 0/8 - - -
Mi, 17.10. 20:00 2100 m 1/8 - - - -
Mi, 17.10. 14:00 2700 m 5/8 5/8 - - -
Ortszeit Bedeckungsgrad in Achtel und Wolkenuntergrenze
Fr, 19.10. 8:30 8(270m)
Fr, 19.10. 8:20 8(270m)
Fr, 19.10. 8:10 8(270m)
Fr, 19.10. 8:00 8(270m)
Fr, 19.10. 7:50 8(270m)
Fr, 19.10. 7:40 8(270m)
Fr, 19.10. 7:30 8(240m) 8(1380m)
Fr, 19.10. 7:00 8(210m)
Fr, 19.10. 6:30 8(210m) 8(1080m)
Fr, 19.10. 6:00 8(210m)
Fr, 19.10. 5:30 8(210m)
Ortszeit Luftdruck NN (hPa) Tendenz (hPa in 3 Std.)
Fr, 19.10. 8:00 1025 + 0,5
Fr, 19.10. 2:00 1024 - 0,1
Do, 18.10. 20:00 1023 + 0,9
Do, 18.10. 14:00 1021 - 0,2
Do, 18.10. 8:00 1021 + 0,9
Do, 18.10. 2:00 1020 0,0
Mi, 17.10. 20:00 1019 + 0,7
Mi, 17.10. 14:00 1019 - 0,8
Ortszeit Luftdruck NN (hPa) Tendenz (hPa in 3 Std.)
Fr, 19.10. 8:30 1025 + 0,7
Fr, 19.10. 8:20 1025 keine Meldung
Fr, 19.10. 8:10 1025 keine Meldung
Fr, 19.10. 8:00 1025 + 0,5
Fr, 19.10. 7:50 1025 keine Meldung
Fr, 19.10. 7:40 1025 keine Meldung
Fr, 19.10. 7:30 1024 + 0,4
Fr, 19.10. 7:00 1024 + 0,1
Fr, 19.10. 6:30 1024 + 0,4
Fr, 19.10. 6:00 1024 + 0,1
Fr, 19.10. 5:30 1024 + 0,2
Ortszeit Schneehöhe (cm)
Fr, 19.10. 8:00 0
Fr, 19.10. 2:00 0
Do, 18.10. 20:00 0
Do, 18.10. 14:00 0
Do, 18.10. 8:00 0
Do, 18.10. 2:00 0
Mi, 17.10. 20:00 0
Mi, 17.10. 14:00 0
Ortszeit Schneehöhe (cm)
Fr, 19.10. 8:30 0
Fr, 19.10. 8:20 0
Fr, 19.10. 8:10 0
Fr, 19.10. 8:00 0
Fr, 19.10. 7:50 0
Fr, 19.10. 7:40 0
Fr, 19.10. 7:30 0
Fr, 19.10. 7:00 0
Fr, 19.10. 6:30 0
Fr, 19.10. 6:00 0
Fr, 19.10. 5:30 0
Link zu dieser Seite / Seite empfehlen

Das Wetter in ...